Regional Weather Roundup
Issued by NWS

Home | Current Version | Previous Version | Text Only | Print | Product List | Glossary On
Versions: 1 2 3 4 5 6 7 8 9 10 11 12 13 14 15 16 17 18 19 20 21 22 23 24 25 26 27 28
000
ASUS45 KREV 232310
RWRNV
NEVADA REGIONAL WEATHER ROUNDUP
NATIONAL WEATHER SERVICE RENO NV
300 PM PST MON JAN 23 2017

NOTE: "FAIR" INDICATES FEW OR NO CLOUDS BELOW 12,000 FEET WITH NO
SIGNIFICANT WEATHER AND/OR OBSTRUCTIONS TO VISIBILITY.

NVZ001-003-004-240000-
WESTERN NEVADA

CITY           SKY/WX    TMP DP  RH WIND       PRES   REMARKS
RENO           PTSUNNY   36  22  56 CALM      29.70R
CARSON CITY    PTSUNNY   37  18  44 NW7       29.70R
MINDEN         FAIR      32  18  55 SW7       29.70R
PYRAMID LAKE     N/A     37 N/A N/A NE2         N/A
FALLON         CLOUDY    37  26  64 NE9       29.71R
LOVELOCK       PTSUNNY   34  26  72 S5        29.71R
HAWTHORNE        N/A    N/A N/A N/A MISG        N/A
$$

NVZ002-CAZ072-073-240000-
NORTHERN AND CENTRAL SIERRA

CITY           SKY/WX    TMP DP  RH WIND       PRES   REMARKS
S. LAKE TAHOE  FLURRIES  25  15  66 SW7       29.67R
TRUCKEE        CLOUDY    25  18  74 W5        29.68S
SQUAW VLY 8000 NOT AVBL
SUSANVILLE     MOSUNNY   36  23  60 SW6       29.70R
MAMMOTH LAKES  PTSUNNY   25  15  64 SE3       29.64R
BRIDGEPORT       N/A     25   9  50 SW7       29.62S
$$

NVZ030-031-036-240000-
NORTHERN NEVADA

CITY           SKY/WX    TMP DP  RH WIND       PRES   REMARKS
ELKO           PTSUNNY   31  21  66 W10       29.63R
WINNEMUCCA     MOSUNNY   30  24  78 W8        29.69R
WENDOVER       CLOUDY    36  25  64 NW7       29.56R
$$

NVZ035-037-240000-
CENTRAL NEVADA

CITY           SKY/WX    TMP DP  RH WIND       PRES   REMARKS
ELY            CLOUDY    28  13  53 VRB5      29.61R
EUREKA           N/A     30  16  56 W7        29.63R
$$

NVZ013-014-240000-
SOUTH CENTRAL NEVADA

CITY           SKY/WX    TMP DP  RH WIND       PRES   REMARKS
TONOPAH        CLOUDY    30  23  75 W5        29.66S
$$

NVZ017-020-022-240000-
SOUTHERN NEVADA

CITY           SKY/WX    TMP DP  RH WIND       PRES   REMARKS
LAS VEGAS      PTSUNNY   51  31  46 SW22G30   29.67R
N. LAS VEGAS   PTSUNNY   50  29  44 SW18G30   29.65F
NELLIS AFB     MOSUNNY   51  31  46 SW17      29.66S
HENDERSON      PTSUNNY   46  34  62 SW23G33   29.69R
MERCURY        CLOUDY    44  29  55 SW15G25   29.66S
$$




USA.gov is the U.S. government's official web portal to all federal, state and local government web resources and services.